This is the latest recevied weather packets stored in our database for station/object IZ5MMH-4. If no packets are shown the sender has not sent any weather packets the latest 10 day(s).
| Time | Temp. | Humidity | Pressure | Rain* | Wind** | Luminosity | Snow |
|---|---|---|---|---|---|---|---|
| 1777592079 | 16.67° C | 25% | 1024.2 hPa | - | - | - | - |
| 1777591479 | 16.67° C | 25% | 1024.1 hPa | - | - | - | - |
| 1777590879 | 16.67° C | 25% | 1024 hPa | - | - | - | - |
| 1777590279 | 16.67° C | 25% | 1024 hPa | - | - | - | - |
| 1777589679 | 16.67° C | 25% | 1023.8 hPa | - | - | - | - |
| 1777589079 | 17.22° C | 25% | 1023.7 hPa | - | - | - | - |
| 1777588479 | 17.22° C | 26% | 1023.6 hPa | - | - | - | - |
| 1777587879 | 17.22° C | 25% | 1023.8 hPa | - | - | - | - |
| 1777587279 | 17.22° C | 24% | 1023.7 hPa | - | - | - | - |
| 1777586679 | 17.22° C | 29% | 1023.5 hPa | - | - | - | - |
| 1777586079 | 17.22° C | 33% | 1023.5 hPa | - | - | - | - |
| 1777585479 | 17.22° C | 32% | 1023.4 hPa | - | - | - | - |
| 1777584879 | 17.78° C | 32% | 1023.4 hPa | - | - | - | - |
| 1777584279 | 18.33° C | 32% | 1023.2 hPa | - | - | - | - |
| 1777583679 | 18.33° C | 32% | 1023.2 hPa | - | - | - | - |
| 1777583079 | 18.33° C | 32% | 1023.1 hPa | - | - | - | - |
| 1777582479 | 18.89° C | 31% | 1023.1 hPa | - | - | - | - |
| 1777581879 | 18.89° C | 31% | 1023 hPa | - | - | - | - |
| 1777581280 | 19.44° C | 31% | 1022.8 hPa | - | - | - | - |
| 1777580679 | 19.44° C | 30% | 1022.8 hPa | - | - | - | - |
| 1777580079 | 19.44° C | 30% | 1022.9 hPa | - | - | - | - |
| 1777579479 | 20° C | 30% | 1022.8 hPa | - | - | - | - |
| 1777578879 | 20° C | 28% | 1022.8 hPa | - | - | - | - |
| 1777578279 | 20° C | 27% | 1022.6 hPa | - | - | - | - |
| 1777577680 | 20.56° C | 26% | 1022.5 hPa | - | - | - | - |
* Rain since midnight (hover to see other rain measurements)
** Current wind speed in m/s (hover to see current wind gust speed)